Time,TemperatureF,DewpointF,PressureIn,WindDirection,WindDirectionDegrees,WindSpeedMPH,WindSpeedGustMPH,Humidity,HourlyPrecipIn,Conditions,Clouds,dailyrainin,SoftwareType,DateUTC
2013-03-23 00:02:00,25.0,19.0,30.08,West,281,1.0,6.0,79,0.00,,,0.02,,2013-03-23 04:02:00,
2013-03-23 00:12:00,25.0,19.0,30.08,West,281,1.0,6.0,79,0.00,,,0.02,,2013-03-23 04:12:00,
2013-03-23 00:23:00,25.0,19.0,30.08,WNW,292,2.0,7.0,78,0.00,,,0.02,,2013-03-23 04:23:00,
2013-03-23 00:32:00,25.0,19.0,30.07,WNW,291,3.0,8.0,77,0.00,,,0.02,,2013-03-23 04:32:00,
2013-03-23 00:43:00,25.0,19.0,30.07,WNW,291,3.0,8.0,77,0.00,,,0.02,,2013-03-23 04:43:00,
2013-03-23 00:53:00,25.0,19.0,30.07,WNW,294,2.0,8.0,77,0.00,,,0.02,,2013-03-23 04:53:00,
2013-03-23 01:02:00,26.0,19.0,30.07,West,274,3.0,8.0,76,0.00,,,0.02,,2013-03-23 05:02:00,
2013-03-23 01:12:00,26.0,19.0,30.07,West,274,3.0,8.0,76,0.00,,,0.02,,2013-03-23 05:12:00,
2013-03-23 01:22:00,26.0,20.0,30.07,WNW,286,2.0,6.0,77,0.00,,,0.02,,2013-03-23 05:22:00,
2013-03-23 01:32:00,26.0,19.0,30.07,WNW,293,1.0,7.0,76,0.00,,,0.02,,2013-03-23 05:32:00,
2013-03-23 01:42:00,26.0,19.0,30.07,WNW,293,1.0,7.0,76,0.00,,,0.02,,2013-03-23 05:42:00,
2013-03-23 01:52:00,26.0,19.0,30.07,NW,308,3.0,9.0,76,0.00,,,0.02,,2013-03-23 05:52:00,
2013-03-23 02:02:00,26.0,19.0,30.07,WNW,288,1.0,6.0,76,0.00,,,0.02,,2013-03-23 06:02:00,
2013-03-23 02:12:00,26.0,19.0,30.07,WNW,288,1.0,6.0,76,0.00,,,0.02,,2013-03-23 06:12:00,
2013-03-23 02:22:00,26.0,19.0,30.07,West,272,2.0,8.0,76,0.00,,,0.02,,2013-03-23 06:22:00,
2013-03-23 02:32:00,26.0,19.0,30.07,West,273,1.0,7.0,75,0.00,,,0.02,,2013-03-23 06:32:00,
2013-03-23 02:42:00,26.0,19.0,30.07,West,273,1.0,7.0,75,0.00,,,0.02,,2013-03-23 06:42:00,
2013-03-23 02:52:00,26.0,19.0,30.07,West,279,2.0,7.0,75,0.00,,,0.02,,2013-03-23 06:52:00,
2013-03-23 03:02:00,26.0,19.0,30.07,WSW,243,1.0,7.0,74,0.00,,,0.02,,2013-03-23 07:02:00,
2013-03-23 03:12:00,26.0,19.0,30.07,WSW,243,1.0,7.0,74,0.00,,,0.02,,2013-03-23 07:12:00,
2013-03-23 03:22:00,26.0,19.0,30.07,WNW,302,2.0,6.0,74,0.00,,,0.02,,2013-03-23 07:22:00,
2013-03-23 03:32:00,27.0,20.0,30.07,West,269,2.0,5.0,74,0.00,,,0.02,,2013-03-23 07:32:00,
2013-03-23 03:42:00,27.0,20.0,30.07,West,269,2.0,5.0,74,0.00,,,0.02,,2013-03-23 07:42:00,
2013-03-23 03:52:00,27.0,20.0,30.06,West,277,2.0,7.0,74,0.00,,,0.02,,2013-03-23 07:52:00,
2013-03-23 04:02:00,27.0,20.0,30.07,WNW,286,1.0,6.0,74,0.00,,,0.02,,2013-03-23 08:02:00,
2013-03-23 04:12:00,27.0,20.0,30.07,WNW,286,1.0,6.0,74,0.00,,,0.02,,2013-03-23 08:12:00,
2013-03-23 04:22:00,27.0,20.0,30.06,WNW,286,0.0,3.0,75,0.00,,,0.02,,2013-03-23 08:22:00,
2013-03-23 04:32:00,27.0,20.0,30.06,West,281,0.0,5.0,75,0.00,,,0.02,,2013-03-23 08:32:00,
2013-03-23 04:42:00,27.0,20.0,30.06,West,281,0.0,5.0,75,0.00,,,0.02,,2013-03-23 08:42:00,
2013-03-23 04:52:00,27.0,20.0,30.06,West,281,1.0,5.0,74,0.00,,,0.02,,2013-03-23 08:52:00,
2013-03-23 05:02:00,27.0,20.0,30.07,West,281,1.0,5.0,74,0.00,,,0.02,,2013-03-23 09:02:00,
2013-03-23 05:12:00,27.0,20.0,30.07,West,281,1.0,5.0,74,0.00,,,0.02,,2013-03-23 09:12:00,
2013-03-23 05:22:00,27.0,20.0,30.07,West,277,1.0,6.0,74,0.00,,,0.02,,2013-03-23 09:22:00,
2013-03-23 05:33:00,27.0,20.0,30.06,WSW,251,1.0,6.0,74,0.00,,,0.02,,2013-03-23 09:33:00,
2013-03-23 05:42:00,27.0,20.0,30.06,WSW,251,1.0,6.0,74,0.00,,,0.02,,2013-03-23 09:42:00,
2013-03-23 05:53:00,27.0,20.0,30.07,WSW,249,2.0,7.0,74,0.00,,,0.02,,2013-03-23 09:53:00,
2013-03-23 06:03:00,27.0,20.0,30.07,West,262,2.0,6.0,74,0.00,,,0.02,,2013-03-23 10:03:00,
2013-03-23 06:13:00,27.0,20.0,30.07,West,262,2.0,6.0,74,0.00,,,0.02,,2013-03-23 10:13:00,
2013-03-23 06:23:00,27.0,20.0,30.07,West,264,2.0,6.0,74,0.00,,,0.02,,2013-03-23 10:23:00,
2013-03-23 06:33:00,27.0,20.0,30.07,West,264,0.0,6.0,75,0.00,,,0.02,,2013-03-23 10:33:00,
2013-03-23 06:42:00,27.0,20.0,30.07,West,264,0.0,6.0,75,0.00,,,0.02,,2013-03-23 10:42:00,
2013-03-23 06:52:00,27.0,20.0,30.08,West,264,1.0,4.0,75,0.00,,,0.02,,2013-03-23 10:52:00,
2013-03-23 07:03:00,27.0,20.0,30.08,West,271,1.0,6.0,75,0.00,,,0.02,,2013-03-23 11:03:00,
2013-03-23 07:12:00,27.0,20.0,30.08,West,271,1.0,6.0,75,0.00,,,0.02,,2013-03-23 11:12:00,
2013-03-23 07:22:00,27.0,20.0,30.08,West,276,2.0,6.0,76,0.00,,,0.02,,2013-03-23 11:22:00,
2013-03-23 07:32:00,27.0,20.0,30.08,West,276,2.0,6.0,76,0.00,,,0.02,,2013-03-23 11:32:00,
2013-03-23 07:42:00,27.0,20.0,30.08,West,276,2.0,6.0,76,0.00,,,0.02,,2013-03-23 11:42:00,
2013-03-23 07:51:00,27.0,20.0,30.09,West,263,2.0,7.0,76,0.00,,,0.02,,2013-03-23 11:51:00,
2013-03-23 08:02:00,27.0,20.0,30.09,WNW,285,2.0,9.0,76,0.00,,,0.02,,2013-03-23 12:02:00,
2013-03-23 08:13:00,27.0,20.0,30.09,WNW,285,2.0,9.0,76,0.00,,,0.02,,2013-03-23 12:13:00,
2013-03-23 08:22:00,27.0,20.0,30.09,West,272,0.0,8.0,76,0.00,,,0.02,,2013-03-23 12:22:00,
2013-03-23 08:33:00,27.0,21.0,30.09,West,264,1.0,7.0,77,0.00,,,0.02,,2013-03-23 12:33:00,
2013-03-23 08:42:00,27.0,21.0,30.09,West,264,1.0,7.0,77,0.00,,,0.02,,2013-03-23 12:42:00,
2013-03-23 08:52:00,27.0,21.0,30.10,West,269,3.0,8.0,77,0.00,,,0.02,,2013-03-23 12:52:00,
2013-03-23 09:03:00,27.0,21.0,30.10,WNW,286,2.0,7.0,77,0.00,,,0.02,,2013-03-23 13:03:00,
2013-03-23 09:12:00,27.0,21.0,30.10,WNW,286,2.0,7.0,77,0.00,,,0.02,,2013-03-23 13:12:00,
2013-03-23 09:23:00,28.0,22.0,30.10,West,261,1.0,6.0,77,0.00,,,0.02,,2013-03-23 13:23:00,
2013-03-23 09:33:00,28.0,21.0,30.10,WSW,248,1.0,7.0,76,0.00,,,0.02,,2013-03-23 13:33:00,
2013-03-23 09:42:00,28.0,21.0,30.10,WSW,248,1.0,7.0,76,0.00,,,0.02,,2013-03-23 13:42:00,
2013-03-23 09:52:00,29.0,22.0,30.11,WSW,258,4.0,11.0,74,0.00,,,0.02,,2013-03-23 13:52:00,
2013-03-23 10:03:00,29.0,21.0,30.11,WSW,251,4.0,11.0,73,0.00,,,0.02,,2013-03-23 14:03:00,
2013-03-23 10:12:00,29.0,21.0,30.11,WSW,251,4.0,11.0,73,0.00,,,0.02,,2013-03-23 14:12:00,
2013-03-23 10:22:00,29.0,21.0,30.11,WNW,292,4.0,9.0,72,0.00,,,0.02,,2013-03-23 14:22:00,
2013-03-23 10:32:00,29.0,21.0,30.11,NW,304,3.0,10.0,71,0.00,,,0.02,,2013-03-23 14:32:00,
2013-03-23 10:42:00,29.0,21.0,30.11,NW,304,3.0,10.0,71,0.00,,,0.02,,2013-03-23 14:42:00,
2013-03-23 10:52:00,30.0,22.0,30.11,West,274,0.0,9.0,72,0.00,,,0.02,,2013-03-23 14:52:00,
2013-03-23 11:03:00,30.0,22.0,30.12,NW,322,1.0,9.0,71,0.00,,,0.02,,2013-03-23 15:03:00,
2013-03-23 11:12:00,30.0,22.0,30.12,NW,322,1.0,9.0,71,0.00,,,0.02,,2013-03-23 15:12:00,
2013-03-23 11:22:00,30.0,21.0,30.12,NNE,24,3.0,8.0,70,0.00,,,0.02,,2013-03-23 15:22:00,
2013-03-23 11:33:00,30.0,21.0,30.12,WNW,289,1.0,7.0,70,0.00,,,0.02,,2013-03-23 15:33:00,
2013-03-23 11:43:00,30.0,21.0,30.12,WNW,289,1.0,7.0,70,0.00,,,0.02,,2013-03-23 15:43:00,
2013-03-23 11:52:00,30.0,22.0,30.12,NNW,342,1.0,10.0,71,0.00,,,0.02,,2013-03-23 15:52:00,
2013-03-23 12:03:00,30.0,22.0,30.13,NW,311,3.0,9.0,71,0.00,,,0.02,,2013-03-23 16:03:00,
2013-03-23 12:13:00,30.0,22.0,30.13,NW,311,3.0,9.0,71,0.00,,,0.02,,2013-03-23 16:13:00,
2013-03-23 12:23:00,30.0,20.0,30.13,WNW,285,4.0,8.0,67,0.00,,,0.02,,2013-03-23 16:23:00,
2013-03-23 12:33:00,31.0,22.0,30.13,NNW,338,2.0,8.0,69,0.00,,,0.02,,2013-03-23 16:33:00,
2013-03-23 12:43:00,31.0,22.0,30.13,NNW,338,2.0,8.0,69,0.00,,,0.02,,2013-03-23 16:43:00,
2013-03-23 12:53:00,31.0,22.0,30.13,WNW,296,3.0,7.0,68,0.00,,,0.02,,2013-03-23 16:53:00,
2013-03-23 13:02:00,31.0,21.0,30.14,NW,318,3.0,8.0,66,0.00,,,0.02,,2013-03-23 17:02:00,
2013-03-23 13:12:00,31.0,21.0,30.14,NW,318,3.0,8.0,66,0.00,,,0.02,,2013-03-23 17:12:00,
2013-03-23 13:22:00,31.0,21.0,30.14,WNW,302,2.0,7.0,67,0.00,,,0.02,,2013-03-23 17:22:00,
2013-03-23 13:33:00,31.0,21.0,30.13,NNE,13,2.0,7.0,66,0.00,,,0.02,,2013-03-23 17:33:00,
2013-03-23 13:42:00,31.0,21.0,30.13,NNE,13,2.0,7.0,66,0.00,,,0.02,,2013-03-23 17:42:00,
2013-03-23 13:52:00,31.0,24.0,30.13,NW,307,4.0,10.0,76,0.00,,,0.02,,2013-03-23 17:52:00,
2013-03-23 14:03:00,30.0,24.0,30.14,NNE,13,4.0,8.0,79,0.00,,,0.02,,2013-03-23 18:03:00,
2013-03-23 14:12:00,30.0,24.0,30.14,NNE,13,4.0,8.0,79,0.00,,,0.02,,2013-03-23 18:12:00,
2013-03-23 14:22:00,30.0,24.0,30.14,NNE,20,6.0,10.0,78,0.00,,,0.02,,2013-03-23 18:22:00,
2013-03-23 14:32:00,30.0,24.0,30.14,North,10,3.0,9.0,77,0.00,,,0.02,,2013-03-23 18:32:00,
2013-03-23 14:42:00,30.0,24.0,30.14,North,10,3.0,9.0,77,0.00,,,0.02,,2013-03-23 18:42:00,
2013-03-23 14:52:00,30.0,23.0,30.14,North,360,6.0,10.0,74,0.00,,,0.02,,2013-03-23 18:52:00,
2013-03-23 15:03:00,30.0,22.0,30.14,NW,315,2.0,9.0,72,0.00,,,0.02,,2013-03-23 19:03:00,
2013-03-23 15:12:00,30.0,22.0,30.14,NW,315,2.0,9.0,72,0.00,,,0.02,,2013-03-23 19:12:00,
2013-03-23 15:22:00,31.0,22.0,30.13,NNE,26,3.0,10.0,69,0.01,,,0.03,,2013-03-23 19:22:00,
2013-03-23 15:32:00,31.0,22.0,30.13,North,360,1.0,8.0,70,0.01,,,0.03,,2013-03-23 19:32:00,
2013-03-23 15:42:00,31.0,22.0,30.13,North,360,1.0,8.0,70,0.01,,,0.03,,2013-03-23 19:42:00,
2013-03-23 15:52:00,32.0,23.0,30.13,NNE,26,4.0,9.0,68,0.01,,,0.03,,2013-03-23 19:52:00,
2013-03-23 16:02:00,32.0,23.0,30.13,NE,38,4.0,9.0,69,0.00,,,0.03,,2013-03-23 20:02:00,
2013-03-23 16:13:00,32.0,23.0,30.13,NE,38,4.0,9.0,69,0.00,,,0.03,,2013-03-23 20:13:00,
2013-03-23 16:22:00,31.0,23.0,30.12,NE,34,4.0,12.0,73,0.01,,,0.04,,2013-03-23 20:22:00,
2013-03-23 16:32:00,31.0,23.0,30.12,NE,34,4.0,12.0,73,0.01,,,0.04,,2013-03-23 20:32:00,
2013-03-23 16:42:00,31.0,23.0,30.12,NE,34,4.0,12.0,73,0.01,,,0.04,,2013-03-23 20:42:00,
2013-03-23 16:52:00,31.0,23.0,30.11,NNE,33,5.0,11.0,72,0.01,,,0.03,,2013-03-23 20:52:00,
2013-03-23 17:02:00,30.0,22.0,30.11,NNE,17,5.0,11.0,73,0.01,,,0.03,,2013-03-23 21:02:00,
2013-03-23 17:12:00,30.0,22.0,30.11,NNE,17,5.0,11.0,73,0.01,,,0.03,,2013-03-23 21:12:00,
2013-03-23 17:22:00,29.0,23.0,30.11,NNE,15,4.0,11.0,77,0.00,,,0.03,,2013-03-23 21:22:00,
2013-03-23 17:33:00,29.0,23.0,30.12,NNE,19,4.0,9.0,78,0.00,,,0.03,,2013-03-23 21:33:00,
2013-03-23 17:43:00,29.0,23.0,30.12,NNE,19,4.0,9.0,78,0.00,,,0.03,,2013-03-23 21:43:00,
2013-03-23 17:53:00,30.0,24.0,30.12,NW,304,4.0,11.0,78,0.00,,,0.03,,2013-03-23 21:53:00,
2013-03-23 18:03:00,30.0,24.0,30.12,NW,305,5.0,9.0,78,0.00,,,0.03,,2013-03-23 22:03:00,
2013-03-23 18:13:00,30.0,24.0,30.12,NW,305,5.0,9.0,78,0.00,,,0.03,,2013-03-23 22:13:00,
2013-03-23 18:23:00,30.0,24.0,30.12,North,11,5.0,11.0,79,0.00,,,0.03,,2013-03-23 22:23:00,
2013-03-23 18:33:00,30.0,25.0,30.12,North,350,4.0,9.0,81,0.00,,,0.02,,2013-03-23 22:33:00,
2013-03-23 18:42:00,30.0,25.0,30.12,North,350,4.0,9.0,81,0.00,,,0.02,,2013-03-23 22:42:00,
2013-03-23 18:52:00,29.0,24.0,30.11,NNE,32,4.0,8.0,82,0.00,,,0.02,,2013-03-23 22:52:00,
2013-03-23 19:02:00,29.0,25.0,30.11,North,5,3.0,7.0,83,0.00,,,0.02,,2013-03-23 23:02:00,
2013-03-23 19:12:00,29.0,25.0,30.11,North,5,3.0,7.0,83,0.00,,,0.02,,2013-03-23 23:12:00,
2013-03-23 19:23:00,29.0,24.0,30.12,NNE,20,2.0,9.0,82,0.00,,,0.02,,2013-03-23 23:23:00,
2013-03-23 19:33:00,29.0,24.0,30.12,NW,306,3.0,9.0,82,0.00,,,0.02,,2013-03-23 23:33:00,
2013-03-23 19:42:00,29.0,24.0,30.12,NW,306,3.0,9.0,82,0.00,,,0.02,,2013-03-23 23:42:00,
2013-03-23 19:52:00,29.0,24.0,30.12,NW,306,3.0,9.0,82,0.00,,,0.02,,2013-03-23 23:52:00,
2013-03-23 20:02:00,28.0,23.0,30.12,North,9,2.0,7.0,82,0.00,,,0.02,,2013-03-24 00:02:00,
2013-03-23 20:12:00,28.0,23.0,30.12,North,9,2.0,7.0,82,0.00,,,0.02,,2013-03-24 00:12:00,
2013-03-23 20:22:00,28.0,23.0,30.12,North,11,1.0,5.0,81,0.00,,,0.02,,2013-03-24 00:22:00,
2013-03-23 20:32:00,28.0,22.0,30.12,NNE,21,1.0,5.0,79,0.00,,,0.02,,2013-03-24 00:32:00,
2013-03-23 20:42:00,28.0,22.0,30.12,NNE,21,1.0,5.0,79,0.00,,,0.02,,2013-03-24 00:42:00,
2013-03-23 20:52:00,28.0,22.0,30.13,NNE,13,3.0,7.0,78,0.00,,,0.02,,2013-03-24 00:52:00,
2013-03-23 21:02:00,28.0,22.0,30.13,North,9,1.0,5.0,79,0.00,,,0.02,,2013-03-24 01:02:00,
2013-03-23 21:12:00,28.0,22.0,30.13,North,9,1.0,5.0,79,0.00,,,0.02,,2013-03-24 01:12:00,
2013-03-23 21:22:00,28.0,22.0,30.13,NW,307,0.0,6.0,79,0.00,,,0.02,,2013-03-24 01:22:00,
2013-03-23 21:32:00,28.0,22.0,30.13,NW,313,1.0,5.0,78,0.00,,,0.02,,2013-03-24 01:32:00,
2013-03-23 21:42:00,28.0,22.0,30.13,NW,313,1.0,5.0,78,0.00,,,0.02,,2013-03-24 01:42:00,
2013-03-23 21:52:00,28.0,22.0,30.14,NW,312,0.0,4.0,79,0.00,,,0.02,,2013-03-24 01:52:00,
2013-03-23 22:03:00,28.0,21.0,30.14,NW,312,0.0,3.0,76,0.00,,,0.02,,2013-03-24 02:03:00,
2013-03-23 22:12:00,28.0,21.0,30.14,NW,312,0.0,3.0,76,0.00,,,0.02,,2013-03-24 02:12:00,
2013-03-23 22:22:00,28.0,21.0,30.14,North,360,0.0,3.0,74,0.00,,,0.02,,2013-03-24 02:22:00,
2013-03-23 22:32:00,28.0,21.0,30.14,North,360,0.0,4.0,75,0.00,,,0.02,,2013-03-24 02:32:00,
2013-03-23 22:42:00,28.0,21.0,30.14,North,360,0.0,4.0,75,0.00,,,0.02,,2013-03-24 02:42:00,
2013-03-23 22:52:00,28.0,20.0,30.14,NW,319,1.0,5.0,73,0.00,,,0.02,,2013-03-24 02:52:00,
2013-03-23 23:02:00,28.0,20.0,30.14,NNW,327,0.0,6.0,73,0.00,,,0.02,,2013-03-24 03:02:00,
2013-03-23 23:12:00,28.0,20.0,30.14,NNW,327,0.0,6.0,73,0.00,,,0.02,,2013-03-24 03:12:00,
2013-03-23 23:22:00,28.0,21.0,30.14,North,360,1.0,7.0,74,0.00,,,0.02,,2013-03-24 03:22:00,
2013-03-23 23:33:00,28.0,21.0,30.13,North,351,1.0,7.0,74,0.00,,,0.02,,2013-03-24 03:33:00,
2013-03-23 23:42:00,28.0,21.0,30.13,North,351,1.0,7.0,74,0.00,,,0.02,,2013-03-24 03:42:00,
2013-03-23 23:52:00,28.0,21.0,30.13,North,360,1.0,7.0,74,0.00,,,0.02,,2013-03-24 03:52:00,